Change the Weather History Date:

Saturday, October 19, 2013

  Actual Average Record
Temperature  
Mean Temperature 35 °F -  
Max Temperature 42 °F 49 °F 78 °F (2000)
Min Temperature 28 °F 30 °F 18 °F (1991)
Degree Days  
Heating Degree Days 30    
Moisture  
Dew Point 32 °F    
Average Humidity 88    
Maximum Humidity 100    
Minimum Humidity 61    
Precipitation  
Precipitation 0.00 in - - ()
Sea Level Pressure  
Sea Level Pressure 29.69 in    
Wind  
Wind Speed 2 mph (NW)    
Max Wind Speed 12 mph    
Max Gust Speed 18 mph    
Visibility 10 miles    
Events Rain    
Averages and records for this station are not official NWS values.
T = Trace of Precipitation, MM = Missing Value Source: NWS Daily Summary

Daily Weather History Graph

Daily Weather History Graph

Search for Another Location

Airport or City:

Trip Planner

Search our weather history database for the weather conditions in past years. The results will help you decide how hot, cold, wet, or windy it might be!

Date:

Astronomy

Oct. 19, 2013 Rise Set
Actual Time 7:34 AM CDT 6:14 PM CDT
Civil Twilight 7:03 AM CDT 6:45 PM CDT
Nautical Twilight 6:27 AM CDT 7:21 PM CDT
Astronomical Twilight 5:52 AM CDT 7:56 PM CDT
Moon 6:37 PM CDT (10/19) 8:16 AM CDT (10/19)
Length of Visible Light 11h 41m
Length of Day
10h 39m
Waxing Gibbous, 99% of the Moon is Illuminated
Oct 19
Waxing Gibbous
Oct 26
Last Quarter
Nov 3
New
Nov 9
First Quarter
Nov 17
Full

Hourly Weather History & Observations

Time (CDT) Temp. Windchill Dew Point Humidity Pressure Visibility Wind Dir Wind Speed Gust Speed Precip Events Conditions
12:06 AM 30.2 °F - 28.4 °F 93% 29.75 in 10.0 mi Calm Calm - N/A   Overcast
12:27 AM 28.4 °F - 26.6 °F 93% 29.75 in 10.0 mi Calm Calm - N/A   Overcast
12:47 AM 30.2 °F - 28.4 °F 93% 29.74 in 10.0 mi Calm Calm - N/A   Overcast
1:06 AM 30.2 °F - 28.4 °F 93% 29.73 in 10.0 mi Calm Calm - N/A   Overcast
1:27 AM 32.0 °F - 32.0 °F 100% 29.73 in 10.0 mi Calm Calm - N/A   Overcast
1:47 AM 32.0 °F - 32.0 °F 100% 29.73 in 10.0 mi Calm Calm - N/A   Overcast
2:06 AM 32.0 °F - 32.0 °F 100% 29.73 in 10.0 mi Calm Calm - N/A   Overcast
2:27 AM 32.0 °F - 32.0 °F 100% 29.72 in 10.0 mi Calm Calm - N/A   Overcast
2:47 AM 32.0 °F - 32.0 °F 100% 29.72 in 10.0 mi Calm Calm - N/A   Overcast
3:06 AM 32.0 °F - 32.0 °F 100% 29.71 in 10.0 mi Calm Calm - N/A   Overcast
3:27 AM 32.0 °F - 32.0 °F 100% 29.70 in 10.0 mi Calm Calm - N/A   Overcast
3:47 AM 32.0 °F - 32.0 °F 100% 29.70 in 10.0 mi Calm Calm - N/A   Overcast
4:06 AM 32.0 °F - 32.0 °F 100% 29.69 in 10.0 mi Calm Calm - N/A   Overcast
4:27 AM 32.0 °F - 32.0 °F 100% 29.68 in 10.0 mi Calm Calm - N/A   Overcast
4:47 AM 32.0 °F - 32.0 °F 100% 29.68 in 10.0 mi Calm Calm - N/A   Overcast
5:06 AM 32.0 °F - 32.0 °F 100% 29.67 in 10.0 mi Calm Calm - N/A   Mostly Cloudy
5:27 AM 32.0 °F 28.7 °F 32.0 °F 100% 29.66 in 10.0 mi NNE 3.5 mph - N/A   Scattered Clouds
5:47 AM 32.0 °F - 32.0 °F 100% 29.66 in 10.0 mi Calm Calm - N/A   Mostly Cloudy
6:06 AM 32.0 °F - 32.0 °F 100% 29.66 in 10.0 mi Calm Calm - N/A   Overcast
6:27 AM 30.2 °F - 30.2 °F 100% 29.66 in 10.0 mi Calm Calm - N/A   Overcast
6:47 AM 30.2 °F - 30.2 °F 100% 29.66 in 10.0 mi Calm Calm - N/A   Overcast
7:06 AM 32.0 °F - 32.0 °F 100% 29.66 in 10.0 mi Calm Calm - N/A   Overcast
7:27 AM 32.0 °F 28.7 °F 32.0 °F 100% 29.66 in 10.0 mi NNE 3.5 mph - N/A   Overcast
7:47 AM 32.0 °F - 32.0 °F 100% 29.66 in 10.0 mi Calm Calm - N/A   Overcast
8:06 AM 32.0 °F - 32.0 °F 100% 29.66 in 10.0 mi Calm Calm - N/A   Overcast
9:06 AM 33.8 °F - 33.8 °F 100% 29.66 in 5.0 mi Calm Calm - N/A Rain Light Rain
9:27 AM 33.8 °F - 33.8 °F 100% 29.66 in 5.0 mi Calm Calm - N/A   Light Drizzle
9:47 AM 35.6 °F - 35.6 °F 100% 29.66 in 7.0 mi Calm Calm - N/A   Light Drizzle
10:06 AM 35.6 °F - 35.6 °F 100% 29.66 in 7.0 mi Calm Calm - N/A   Overcast
10:27 AM 35.6 °F - 35.6 °F 100% 29.66 in 10.0 mi Calm Calm - N/A Rain Light Rain
10:47 AM 35.6 °F 32.8 °F 35.6 °F 100% 29.66 in 10.0 mi NW 3.5 mph - N/A   Drizzle
11:06 AM 35.6 °F 32.8 °F 35.6 °F 100% 29.66 in 10.0 mi NNW 3.5 mph - N/A   Overcast
11:27 AM 39.2 °F - 35.6 °F 87% 29.66 in 10.0 mi Calm Calm - N/A   Overcast
11:46 AM 37.4 °F 32.1 °F 33.8 °F 87% 29.66 in 10.0 mi NW 6.9 mph - N/A   Overcast
12:07 PM 39.2 °F - 35.6 °F 87% 29.66 in 10.0 mi Calm Calm - N/A   Overcast
12:27 PM 39.2 °F - 33.8 °F 81% 29.66 in 10.0 mi Calm Calm - N/A   Overcast
12:46 PM 39.2 °F 37.0 °F 35.6 °F 87% 29.66 in 10.0 mi WNW 3.5 mph - N/A   Overcast
1:07 PM 41.0 °F 36.4 °F 33.8 °F 76% 29.65 in 10.0 mi West 6.9 mph - N/A   Mostly Cloudy
1:26 PM 41.0 °F 37.1 °F 32.0 °F 70% 29.65 in 10.0 mi WNW 5.8 mph - N/A   Overcast
1:47 PM 39.2 °F 35.0 °F 32.0 °F 75% 29.65 in 10.0 mi NNW 5.8 mph - N/A   Overcast
2:06 PM 41.0 °F 38.0 °F 32.0 °F 70% 29.66 in 10.0 mi West 4.6 mph - N/A   Mostly Cloudy
2:27 PM 42.8 °F 38.6 °F 32.0 °F 66% 29.66 in 10.0 mi WNW 6.9 mph - N/A   Mostly Cloudy
2:47 PM 42.8 °F 37.0 °F 32.0 °F 66% 29.66 in 10.0 mi NNW 10.4 mph - N/A   Overcast
3:06 PM 42.8 °F 36.6 °F 32.0 °F 66% 29.66 in 10.0 mi WNW 11.5 mph - N/A   Scattered Clouds
3:27 PM 42.8 °F 37.5 °F 30.2 °F 61% 29.66 in 10.0 mi NW 9.2 mph - N/A   Scattered Clouds
3:47 PM 42.8 °F 38.0 °F 30.2 °F 61% 29.67 in 10.0 mi WNW 8.1 mph - N/A   Scattered Clouds
4:06 PM 42.8 °F 37.0 °F 30.2 °F 61% 29.67 in 10.0 mi NW 10.4 mph 18.4 mph N/A   Scattered Clouds
4:27 PM 42.8 °F 37.5 °F 30.2 °F 61% 29.68 in 10.0 mi NNW 9.2 mph - N/A   Mostly Cloudy
4:47 PM 42.8 °F 39.3 °F 30.2 °F 61% 29.68 in 10.0 mi NNW 5.8 mph - N/A   Scattered Clouds
5:06 PM 42.8 °F 37.0 °F 30.2 °F 61% 29.69 in 10.0 mi NW 10.4 mph - N/A   Scattered Clouds
5:27 PM 42.8 °F 38.0 °F 32.0 °F 66% 29.70 in 10.0 mi NNW 8.1 mph - N/A   Scattered Clouds
5:47 PM 39.2 °F 33.6 °F 28.4 °F 65% 29.70 in 10.0 mi NW 8.1 mph 16.1 mph N/A   Clear
6:06 PM 39.2 °F 33.6 °F 30.2 °F 70% 29.71 in 10.0 mi NW 8.1 mph - N/A   Clear
6:27 PM 37.4 °F 33.8 °F 30.2 °F 75% 29.71 in 10.0 mi NW 4.6 mph - N/A   Clear
6:47 PM 35.6 °F 30.7 °F 30.2 °F 81% 29.72 in 10.0 mi WNW 5.8 mph - N/A   Clear
7:06 PM 35.6 °F 30.7 °F 30.2 °F 81% 29.72 in 10.0 mi WNW 5.8 mph - N/A   Scattered Clouds
7:27 PM 35.6 °F - 30.2 °F 81% 29.72 in 10.0 mi Calm Calm - N/A   Mostly Cloudy
7:47 PM 35.6 °F 32.8 °F 30.2 °F 81% 29.72 in 10.0 mi WNW 3.5 mph - N/A   Overcast
8:06 PM 35.6 °F 32.8 °F 32.0 °F 87% 29.73 in 10.0 mi NNW 3.5 mph - N/A   Overcast
8:27 PM 35.6 °F 32.8 °F 32.0 °F 87% 29.73 in 10.0 mi NW 3.5 mph - N/A   Overcast
8:47 PM 35.6 °F 32.8 °F 32.0 °F 87% 29.73 in 10.0 mi NW 3.5 mph - N/A   Scattered Clouds
9:06 PM 35.6 °F 29.9 °F 32.0 °F 87% 29.73 in 10.0 mi NW 6.9 mph - N/A   Clear
9:27 PM 35.6 °F 31.7 °F 32.0 °F 87% 29.73 in 10.0 mi West 4.6 mph - N/A   Clear
9:47 PM 33.8 °F 29.6 °F 32.0 °F 93% 29.73 in 10.0 mi WNW 4.6 mph - N/A   Scattered Clouds
10:06 PM 33.8 °F 27.7 °F 32.0 °F 93% 29.73 in 10.0 mi WNW 6.9 mph - N/A   Clear
10:27 PM 33.8 °F 27.0 °F 32.0 °F 93% 29.73 in 10.0 mi West 8.1 mph - N/A   Clear
10:47 PM 33.8 °F 27.7 °F 32.0 °F 93% 29.73 in 10.0 mi WNW 6.9 mph - N/A   Clear
11:07 PM 32.0 °F 27.5 °F 30.2 °F 93% 29.73 in 10.0 mi WNW 4.6 mph - N/A   Clear
11:26 PM 32.0 °F 28.7 °F 30.2 °F 93% 29.73 in 10.0 mi West 3.5 mph - N/A   Clear
11:47 PM 32.0 °F - 30.2 °F 93% 29.73 in 10.0 mi Calm Calm - N/A   Clear